Location: Rowland
(34.5359°N, 79.2929°W)
Time: 17:07:26
(UTC+00:00)

Courier 1B Rocket - Visible Passes

Search period start: 26 September 2022 00:00
Search period end: 06 October 2022 00:00
Orbit: 920 x 1202 km, 28.2° (Epoch: 25 September)

Date Brightness Start Highest point End Pass type
(mag) Time Alt. Az. Time Alt. Az. Time Alt. Az.
26 Sep 7.0 01:19:16 10° SSW 01:20:11 13° S 01:20:11 13° S visible
26 Sep 7.1 08:57:52 13° S 08:57:52 13° S 08:59:10 10° SSE visible
27 Sep 6.7 00:20:03 10° S 00:22:31 12° SSE 00:23:16 12° SE visible
28 Sep 6.4 01:09:18 10° SSW 01:12:41 22° S 01:12:41 22° S visible
29 Sep 6.4 00:09:11 10° SSW 00:13:31 19° SSE 00:15:39 16° SE visible
29 Sep 6.9 02:00:28 10° SW 02:02:02 17° SW 02:02:02 17° SW visible
30 Sep 5.8 00:59:46 10° SW 01:04:57 32° S 01:04:57 32° S visible
30 Sep 6.2 23:59:12 10° SSW 00:04:32 26° SSE 00:07:49 17° ESE visible
01 Oct 6.5 01:51:23 10° WSW 01:54:12 25° SW 01:54:12 25° SW visible
02 Oct 5.5 00:50:28 10° SW 00:56:31 40° SSE 00:57:01 39° SSE visible
02 Oct 5.9 23:49:38 10° SW 23:55:36 34° SSE 23:59:47 17° ESE visible
03 Oct 6.1 01:42:23 10° WSW 01:46:10 33° SW 01:46:10 33° SW visible
04 Oct 5.4 00:41:19 10° WSW 00:47:39 46° S 00:48:55 41° SE visible
04 Oct 7.4 02:34:36 10° WSW 02:35:17 13° WSW 02:35:17 13° WSW visible
04 Oct 5.7 23:40:18 10° WSW 23:46:41 41° SSE 23:51:38 15° ESE visible
05 Oct 5.9 01:33:26 10° WSW 01:38:00 39° SW 01:38:00 39° SW visible
